Showing default

METEOR M2-4, 59051

Orbit data source: Space-Track

METEOR M2-4, 59051 is a Commonwealth of Independent States-origin payload satellite in SSO that was launched on Thu, 29 Feb 2024 UTC via a SOYUZ-2-1B launch vehicle from the Vostochny Cosmodrome (VOSTO). Payload-class satellites include a variety of spacecraft equipped with specific instruments for various scientific and technological missions. These include communications satellites like Starlink; space stations such as the ISS; scientific satellites like the Hubble; Earth observation satellites from companies like Planet Labs, Umbra, and HawkEye 360; GPS; miniature CubeSats for education and research; and military/defense satellites.

Loading next visibility...
Identifier
59051, 2024-039A
Orbit
SSO
Country
Flag of CISCIS
Related business
Manufacturer
VNIIEM
Mission
Operational Civil Weather
Bus & Motor
RESURS-O, Unknown motor
Mass
3,200 kg wet, ~3,000 kg dry
Launch date (UTC)
2024-02-29 (2 years ago)
Launch vehicle
SOYUZ-2-1B
Launch site
Vostochny Cosmodrome (VOSTO)
Object type
Payload
Rocket body
Debris
Shape & HBR
Cyl + 2 Pan, 7.0 m
Radar Cross Section
26.744 m², Large (>1 m²)

Expand to show TLE details & history
Last TLE update: 7 hours ago

TLE from 7 hours ago
0 METEOR M2-4
1 59051U 24039A   26124.14925804  .00000012  00000-0  24865-4 0  9998
2 59051  98.6985  84.0087 0006107 303.2786  56.7807 14.22424856113003
Epoch: 2026-05-04T03:34Z
TLE epoch observation values (Epoch: 2026-05-04T03:34:55.894Z)
Latitude
0.00003°
Longitude
168.2332°
Altitude
817.676 km
Speed
7.446 km/s
True Right ascension
05h 36m 02s
True Declination
0° 00' 00"
Sunlit
Object was in daylight at epoch
Visualization orbit readout
Latitude
Unknown
Longitude
Unknown
Altitude
Unknown
Speed
Unknown
Apparent Right ascension
Unknown
Apparent Declination
Unknown
Sunlit
N/A
Visualization observer readout
Local Sidereal Time
18:46:11
Azimuth
Unknown
Elevation
Unknown
Doppler factor
Unknown
Orbital elements
Apogee altitude
818.711 km
Perigee altitude
809.926 km
Semi-major axis
7,192.456 km
Eccentricity
0.00061
Inclination
98.6985°
RAAN
84.0087°
Arg. of periapsis
303.2786°
True anomaly
56.83927°
Mean anomaly
56.7807°
Eccentric anomaly
56.80998°
Mean motion
3.55818 °/min
Orbital period
101.18 mins
BSTAR
0.000024865
Loading maneuver chart data...
Computing Atmospheric mass density...
Loading historical data...
Loading historical data...
Loading historical data...
Loading historical data...
Loading historical data...
Loading historical data...
Loading historical data...

Documentation

Showing up to 5 results
|